Oxnard, CA

12:18 PM PST on January 24, 2017 (GMT -0800)
Oxnard

Weather History for KOXR - February, 2013

Change the Weather History Date:

Wednesday, February 27, 2013

  Actual Average Record
Temperature  
Mean Temperature 60 °F -  
Max Temperature 73 °F 67 °F 83 °F (1992)
Min Temperature 46 °F 46 °F 30 °F (1962)
Degree Days  
Heating Degree Days 6    
Growing Degree Days 10 (Base 50)    
Moisture  
Dew Point 25 °F    
Average Humidity 33    
Maximum Humidity 68    
Minimum Humidity 10    
Precipitation  
Precipitation 0.00 in - - ()
Sea Level Pressure  
Sea Level Pressure 30.21 in    
Wind  
Wind Speed 7 mph (NNE)    
Max Wind Speed 17 mph    
Max Gust Speed 22 mph    
Visibility 10 miles    
Events      
Averages and records for this station are not official NWS values.
T = Trace of Precipitation, MM = Missing Value Source: NWS Daily Summary

Daily Weather History Graph

Daily Weather History Graph

Search for Another Location

Airport or City:

Trip Planner

Search our weather history database for the weather conditions in past years. The results will help you decide how hot, cold, wet, or windy it might be!

Date:

Astronomy

Feb. 27, 2013 Rise Set
Actual Time 6:27 AM PST 5:51 PM PST
Civil Twilight 6:02 AM PST 6:16 PM PST
Nautical Twilight 5:33 AM PST 6:46 PM PST
Astronomical Twilight 5:04 AM PST 7:15 PM PST
Moon 8:09 PM PST (2/27) 7:13 AM PST (2/27)
Length of Visible Light 12h 14m
Length of Day
11h 24m
Waning Gibbous, 96% of the Moon is Illuminated
Feb 27
Waning Gibbous
Mar 4
Last Quarter
Mar 11
New
Mar 19
First Quarter
Mar 27
Full

Hourly Weather History & Observations

Time (PST) Temp. Dew Point Humidity Pressure Visibility Wind Dir Wind Speed Gust Speed Precip Events Conditions
12:51 AM 46.0 °F 36.0 °F 68% 30.12 in 10.0 mi Calm Calm - N/A   Clear
1:51 AM 51.1 °F 23.0 °F 33% 30.14 in 10.0 mi East 5.8 mph - N/A   Clear
2:51 AM 51.1 °F 21.9 °F 32% 30.15 in 10.0 mi ENE 3.5 mph - N/A   Clear
3:51 AM 50.0 °F 19.9 °F 31% 30.16 in 10.0 mi ENE 8.1 mph - N/A   Clear
4:51 AM 50.0 °F 19.0 °F 29% 30.17 in 10.0 mi NE 8.1 mph - N/A   Clear
5:51 AM 51.1 °F 18.0 °F 27% 30.17 in 10.0 mi ENE 8.1 mph - N/A   Clear
6:51 AM 50.0 °F 19.0 °F 29% 30.20 in 10.0 mi ENE 6.9 mph - N/A   Clear
7:51 AM 57.0 °F 21.0 °F 25% 30.23 in 10.0 mi ENE 6.9 mph - N/A   Clear
8:51 AM 66.0 °F 14.0 °F 13% 30.22 in 10.0 mi North - - N/A   Clear
9:51 AM 69.1 °F 14.0 °F 12% 30.23 in 10.0 mi East 17.3 mph - N/A   Clear
10:51 AM 72.0 °F 12.9 °F 10% 30.23 in 10.0 mi East 17.3 mph - N/A   Clear
11:51 AM 73.0 °F 12.9 °F 10% 30.23 in 10.0 mi Variable 5.8 mph - N/A   Clear
12:51 PM 71.1 °F 26.1 °F 19% 30.22 in 10.0 mi WNW 11.5 mph - N/A   Clear
1:51 PM 71.1 °F 21.0 °F 15% 30.20 in 10.0 mi WNW 15.0 mph - N/A   Clear
2:51 PM 71.1 °F 21.0 °F 15% 30.19 in 10.0 mi WNW 13.8 mph 21.9 mph N/A   Clear
3:51 PM 68.0 °F 26.1 °F 21% 30.20 in 10.0 mi WNW 13.8 mph - N/A   Clear
4:51 PM 62.1 °F 37.0 °F 39% 30.21 in 10.0 mi WNW 16.1 mph - N/A   Clear
5:51 PM 57.9 °F 33.1 °F 39% 30.22 in 10.0 mi WNW 9.2 mph - N/A   Clear
6:51 PM 55.9 °F 32.0 °F 40% 30.23 in 10.0 mi West 8.1 mph - N/A   Clear
7:51 PM 54.0 °F 39.9 °F 59% 30.25 in 10.0 mi Calm Calm - N/A   Clear
8:51 PM 55.0 °F 33.1 °F 43% 30.26 in 10.0 mi Calm Calm - N/A   Clear
9:51 PM 52.0 °F 32.0 °F 47% 30.28 in 10.0 mi Calm Calm - N/A   Clear
10:51 PM 46.9 °F 37.0 °F 68% 30.29 in 9.0 mi North 3.5 mph - N/A   Clear
11:51 PM 48.0 °F 34.0 °F 58% 30.29 in 10.0 mi Calm Calm - N/A   Clear